EW6655 Weather Reports


time (UTC)temp
C
wind
direction
speed
KPH
gust
KPH
rain 1hr
cm
rain 24hr
cm
rain mn
cm
humidity
%
barometer
mb
20260507113012 10 28 3.2 6.4 0.00 0.18 0.03 77 1015.7
20260507111507 10 351 1.6 8.0 0.00 0.18 0.03 78 1015.6
20260507110004 10 111 0.0 9.7 0.00 0.18 0.03 80 1015.6
20260507104505 9 19 1.6 6.4 0.00 0.18 0.03 82 1015.7
20260507103100 9 328 1.6 12.9 0.00 0.18 0.03 84 1015.7
20260507101558 8 319 1.6 6.4 0.00 0.18 0.03 85 1015.7
20260507100059 8 21 3.2 12.9 0.00 0.18 0.03 86 1015.5
20260507094604 8 9 1.6 12.9 0.00 0.20 0.03 87 1015.4
20260507093050 8 279 0.0 14.5 0.00 0.20 0.03 90 1015.3
20260507091549 8 15 3.2 12.9 0.00 0.20 0.03 90 1015.2
20260507090044 7 5 3.2 12.9 0.00 0.20 0.03 93 1015.1
20260507084553 7 5 1.6 12.9 0.00 0.25 0.03 94 1014.9
20260507083041 7 5 6.4 14.5 0.00 0.25 0.03 95 1014.8
20260507081538 7 351 1.6 9.7 0.00 0.25 0.03 96 1014.8
20260507080036 7 32 1.6 8.0 0.00 0.25 0.03 97 1014.6
20260507074534 6 350 3.2 8.0 0.00 0.28 0.03 97 1014.5
20260507073033 6 9 1.6 12.9 0.00 0.28 0.03 97 1014.4
20260507071535 6 279 1.6 8.0 0.00 0.28 0.03 97 1014.4
20260507070028 6 286 3.2 11.3 0.00 0.28 0.03 97 1014.2
20260507064526 6 9 0.0 6.4 0.00 0.30 0.03 97 1014.1
20260507063027 6 23 1.6 6.4 0.00 0.30 0.03 97 1014.0
20260507061530 5 355 1.6 4.8 0.00 0.30 0.03 97 1013.9
20260507060032 5 355 1.6 8.0 0.00 0.30 0.03 97 1013.8
20260507054533 5 329 0.0 6.4 0.00 0.33 0.03 97 1013.7
20260507053020 5 348 1.6 6.4 0.00 0.33 0.03 97 1013.5
20260507051519 5 13 0.0 8.0 0.00 0.33 0.03 97 1013.4
20260507050036 5 351 1.6 6.4 0.00 0.33 0.03 97 1013.1
20260507044521 5 259 0.0 4.8 0.00 0.41 0.03 97 1013.0
20260507043013 5 315 1.6 6.4 0.00 0.41 0.03 97 1012.8
20260507041513 5 347 3.2 8.0 0.00 0.41 0.03 97 1012.7
20260507040013 5 355 1.6 4.8 0.00 0.41 0.03 97 1012.6
20260507034511 5 19 4.8 8.0 0.00 0.48 0.03 97 1012.5
20260507033010 5 355 3.2 6.4 0.00 0.48 0.03 97 1012.3
20260507031508 5 23 3.2 8.0 0.00 0.48 0.03 97 1012.3
20260507030007 5 10 3.2 8.0 0.00 0.48 0.03 97 1012.2
20260507024506 5 13 1.6 8.0 0.00 0.51 0.03 97 1012.1
20260507023004 5 20 3.2 8.0 0.00 0.51 0.03 97 1012.1
20260507021502 5 322 3.2 9.7 0.00 0.51 0.03 97 1012.0
20260507020100 5 340 4.8 14.5 0.03 0.51 0.03 97 1012.0
20260507014600 5 292 1.6 9.7 0.03 0.56 0.03 97 1011.8
20260507013056 5 34 3.2 14.5 0.03 0.56 0.03 96 1011.8
20260507011559 5 360 3.2 8.0 0.03 0.56 0.03 97 1011.7
20260507010054 5 11 3.2 14.5 0.00 0.53 0.00 97 1011.6
20260507004553 5 355 6.4 12.9 0.00 0.56 0.00 97 1011.5
20260507003050 5 349 1.6 12.9 0.00 0.56 0.00 97 1011.4
20260507001550 5 9 6.4 14.5 0.00 0.56 0.00 97 1011.4
20260507000049 5 5 3.2 14.5 0.00 0.56 0.00 96 1011.3
20260506234603 5 284 6.4 16.1 0.00 0.56 0.00 96 1011.3
20260506233045 5 39 6.4 16.1 0.00 0.56 0.00 97 1011.2
20260506231543 5 333 1.6 16.1 0.00 0.56 0.00 97 1011.2
20260506230040 5 355 3.2 9.7 0.00 0.56 0.00 97 1011.1
20260506224544 5 17 4.8 14.5 0.03 0.61 0.00 96 1011.1
20260506223037 6 5 4.8 12.9 0.03 0.61 0.00 96 1010.8
20260506221635 6 55 3.2 6.4 0.03 0.61 0.00 96 1010.7
20260506220036 6 32 0.0 4.8 0.03 0.61 0.00 96 1010.7
20260506214531 5 355 4.8 12.9 0.00 0.66 0.58 96 1010.4
20260506213031 5 5 4.8 9.7 0.00 0.66 0.58 97 1010.3
20260506211528 5 347 1.6 8.0 0.00 0.66 0.58 96 1010.2
20260506210033 5 252 1.6 9.7 0.00 0.66 0.58 96 1010.1
20260506204534 5 9 3.2 9.7 0.00 0.86 0.58 96 1010.0
20260506203028 5 355 4.8 12.9 0.00 0.86 0.58 96 1010.1
20260506201526 5 350 4.8 14.5 0.00 0.86 0.58 96 1010.0
20260506200021 5 346 3.2 16.1 0.00 0.86 0.58 96 1009.9
20260506194516 5 355 4.8 12.9 0.00 0.94 0.58 96 1009.7
20260506193017 5 9 3.2 9.7 0.00 0.94 0.58 96 1009.6
20260506191512 5 355 1.6 9.7 0.03 0.94 0.58 96 1009.4
20260506190010 6 341 1.6 9.7 0.03 0.94 0.58 96 1009.3
20260506184509 6 355 1.6 12.9 0.03 1.09 0.58 96 1009.2
20260506183007 6 360 1.6 12.9 0.03 1.09 0.58 96 1009.2
20260506181507 6 351 0.0 12.9 0.00 1.07 0.56 96 1009.0
20260506180007 6 350 3.2 8.0 0.03 1.07 0.56 96 1008.8
20260506174501 6 340 0.0 9.7 0.03 1.19 0.56 96 1008.7
20260506173115 6 321 3.2 14.5 0.03 1.19 0.56 96 1008.5
20260506171601 6 248 3.2 6.4 0.03 1.19 0.56 96 1008.4
20260506170056 6 355 4.8 19.3 0.00 1.17 0.53 96 1008.4
20260506164557 6 13 4.8 12.9 0.00 1.40 0.53 96 1008.3
20260506163054 6 355 3.2 16.1 0.00 1.40 0.53 96 1008.2
20260506161602 6 348 3.2 14.5 0.00 1.40 0.53 96 1008.1
20260506160049 6 189 1.6 14.5 0.00 1.40 0.53 96 1008.0
20260506154547 6 286 3.2 12.9 0.00 1.45 0.53 96 1007.8
20260506153046 6 45 3.2 8.0 0.00 1.45 0.53 96 1007.8
20260506151601 6 296 3.2 14.5 0.00 1.45 0.53 96 1007.7
20260506150045 6 16 1.6 12.9 0.00 1.45 0.53 96 1007.8
20260506144543 6 355 6.4 20.9 0.00 1.45 0.53 96 1007.7
20260506143048 6 19 4.8 17.7 0.00 1.45 0.53 95 1007.7
20260506141539 6 5 3.2 14.5 0.03 1.45 0.53 96 1007.5
20260506140039 6 355 1.6 16.1 0.03 1.45 0.53 96 1007.5
20260506134535 7 348 4.8 19.3 0.03 1.45 0.53 96 1007.3
20260506133039 7 323 1.6 14.5 0.05 1.45 0.53 96 1007.3
20260506131536 7 21 6.4 19.3 0.03 1.42 0.51 96 1007.2
20260506130032 7 345 3.2 14.5 0.03 1.42 0.51 96 1007.0
20260506124530 7 17 6.4 12.9 0.05 1.42 0.51 96 1006.9
20260506123029 7 18 0.0 16.1 0.03 1.42 0.51 96 1006.9
20260506121527 7 5 6.4 17.7 0.05 1.42 0.51 96 1006.8
20260506120025 7 342 4.8 16.1 0.05 1.42 0.51 96 1006.8
20260506114533 7 331 1.6 8.0 0.05 1.42 0.48 96 1006.6